Zurück zum Katalog

STARLINK-35882

AktivKommunikationVLEO
NORAD 67088·PAYLOAD·🇺🇸 United States

Gestartet Dec 14, 2025 von Vandenberg Space Force Base

Loading…

Nächste Überflüge (nächste 24 Stunden)

TLE

AktuellSource: CelesTrak SupGP

Epoche: Sep 15, 2026, 03:52 UTC

1 67088C 25298P   26258.16159722 -.00044651  00000+0 -37418-2 0  2585
2 67088  69.9997 256.8999 0004004 267.4906 107.5118 14.98351830    16

Verfolge STARLINK-35882 in Echtzeit mit AllMySat

Download on the App Store